Starlink 5317

operational
NORAD ID: 55283 Int'l Des: 2023-010 Owner: SPXS Country: US Constellation: starlink
LEOCIRCULAR

关于 Starlink 5317

正在加载描述...

实时位置

正在加载3D地球...

即将过境

高度历史

Altitude vs Time

uPlot chart will show altitude changes over time

两行轨道根数

1 55283U 23010Q 26037.22330173 -.00000247 00000-0 -12910-4 0 9990
2 55283 70.0010 123.7531 0002798 258.3527 101.7318 14.98326342168067
Epoch: Feb 6, 2026 • Age: 8 hours

当前状态

高度 591.3 km
速度 7.56 km/s
星下点 -54.92°S, 118.71°E
发射日期 Jan 19, 2023
运行时间 3 years
类型 internet

技术详情

分类 Payload
质量 305.00 kg
干质量 290.00 kg
总质量 305.00 kg
长度 0.20 m
直径 2.80 m
跨度 9.00 m
形状 Box + pan
制造商 SPXS
平台类型 Starlink
阶段状态 In Orbit
所有者/国家 SPXS/US

大型星座

Loading constellations...